Time,TemperatureF,DewpointF,PressureIn,WindDirection,WindDirectionDegrees,WindSpeedMPH,WindSpeedGustMPH,Humidity,HourlyPrecipIn,Conditions,Clouds,dailyrainin,SoftwareType,DateUTC
2013-02-05 00:00:00,47.3,43.4,30.07,SSW,203,1.8,1.8,86,0.00,,,0.00,WUHU216HW,2013-02-05 08:00:00,
2013-02-05 00:05:00,47.3,43.4,30.07,West,270,1.1,1.8,86,0.00,,,0.00,WUHU216HW,2013-02-05 08:05:00,
2013-02-05 00:30:00,47.3,43.7,30.08,WSW,248,1.1,1.1,87,0.00,,,0.00,WUHU216HW,2013-02-05 08:30:00,
2013-02-05 00:31:00,47.3,43.7,30.08,WSW,248,1.1,1.1,87,0.00,,,0.00,WUHU216HW,2013-02-05 08:31:00,
2013-02-05 00:36:00,47.3,43.7,30.08,WSW,248,1.1,1.1,87,0.00,,,0.00,WUHU216HW,2013-02-05 08:36:00,
2013-02-05 01:00:00,47.3,43.7,30.07,NNW,338,0.7,0.7,87,0.00,,,0.00,WUHU216HW,2013-02-05 09:00:00,
2013-02-05 01:05:00,47.3,43.7,30.07,NNW,338,0.4,0.7,87,0.00,,,0.00,WUHU216HW,2013-02-05 09:05:00,
2013-02-05 01:30:00,47.2,43.6,30.07,West,270,0.0,0.0,87,0.00,,,0.00,WUHU216HW,2013-02-05 09:30:00,
2013-02-05 01:31:00,47.2,43.6,30.07,West,270,0.0,0.0,87,0.00,,,0.00,WUHU216HW,2013-02-05 09:31:00,
2013-02-05 01:36:00,47.2,43.6,30.07,West,270,0.0,0.0,87,0.00,,,0.00,WUHU216HW,2013-02-05 09:36:00,
2013-02-05 01:41:00,47.2,43.6,30.07,West,270,0.0,0.0,87,0.00,,,0.00,WUHU216HW,2013-02-05 09:41:00,
2013-02-05 02:00:00,47.2,43.6,30.07,West,270,0.7,0.7,87,0.00,,,0.00,WUHU216HW,2013-02-05 10:00:00,
2013-02-05 02:05:00,47.2,43.6,30.07,West,270,0.0,0.7,87,0.00,,,0.00,WUHU216HW,2013-02-05 10:05:00,
2013-02-05 02:30:00,46.4,42.9,30.07,NW,315,2.0,2.0,87,0.00,,,0.00,WUHU216HW,2013-02-05 10:30:00,
2013-02-05 02:31:00,46.6,43.0,30.07,NW,315,1.3,1.3,87,0.00,,,0.00,WUHU216HW,2013-02-05 10:31:00,
2013-02-05 02:36:00,46.4,42.9,30.07,NW,315,2.0,2.0,87,0.00,,,0.00,WUHU216HW,2013-02-05 10:36:00,
2013-02-05 03:00:00,46.4,42.9,30.06,WSW,248,0.0,0.0,87,0.00,,,0.00,WUHU216HW,2013-02-05 11:00:00,
2013-02-05 03:05:00,46.4,42.9,30.06,WNW,293,1.8,1.8,87,0.00,,,0.00,WUHU216HW,2013-02-05 11:05:00,
2013-02-05 03:30:00,46.4,42.9,30.07,NW,315,0.9,0.9,87,0.00,,,0.00,WUHU216HW,2013-02-05 11:30:00,
2013-02-05 03:31:00,46.4,42.9,30.07,North,0,0.4,0.4,87,0.00,,,0.00,WUHU216HW,2013-02-05 11:31:00,
2013-02-05 03:36:00,46.4,42.9,30.07,NW,315,0.9,0.9,87,0.00,,,0.00,WUHU216HW,2013-02-05 11:36:00,
2013-02-05 04:00:00,46.4,42.9,30.06,WNW,293,0.0,0.0,87,0.00,,,0.00,WUHU216HW,2013-02-05 12:00:00,
2013-02-05 04:05:00,46.4,42.9,30.06,WNW,293,0.0,0.0,87,0.00,,,0.00,WUHU216HW,2013-02-05 12:05:00,
2013-02-05 04:30:00,46.4,42.5,30.06,NW,315,0.0,0.0,86,0.00,,,0.00,WUHU216HW,2013-02-05 12:30:00,
2013-02-05 04:31:00,46.4,42.5,30.06,NW,315,0.0,0.0,86,0.00,,,0.00,WUHU216HW,2013-02-05 12:31:00,
2013-02-05 04:36:00,46.4,42.5,30.06,NW,315,0.0,0.0,86,0.00,,,0.00,WUHU216HW,2013-02-05 12:36:00,
2013-02-05 05:00:00,46.4,42.2,30.05,SW,225,0.2,0.2,85,0.00,,,0.00,WUHU216HW,2013-02-05 13:00:00,
2013-02-05 05:05:00,46.4,42.2,30.05,SW,225,0.0,0.2,85,0.00,,,0.00,WUHU216HW,2013-02-05 13:05:00,
2013-02-05 05:30:00,46.4,42.2,30.05,West,270,0.0,0.4,85,0.00,,,0.00,WUHU216HW,2013-02-05 13:30:00,
2013-02-05 05:31:00,46.4,42.2,30.05,West,270,0.4,0.4,85,0.00,,,0.00,WUHU216HW,2013-02-05 13:31:00,
2013-02-05 05:36:00,46.4,42.2,30.05,West,270,0.0,0.4,85,0.00,,,0.00,WUHU216HW,2013-02-05 13:36:00,
2013-02-05 06:00:00,46.1,41.9,30.05,SSW,203,1.6,1.6,85,0.00,,,0.00,WUHU216HW,2013-02-05 14:00:00,
2013-02-05 06:05:00,46.1,41.9,30.05,NW,315,1.3,1.6,85,0.00,,,0.00,WUHU216HW,2013-02-05 14:05:00,
2013-02-05 06:30:00,45.9,41.7,30.05,NNW,338,0.2,0.7,85,0.00,,,0.00,WUHU216HW,2013-02-05 14:30:00,
2013-02-05 06:31:00,45.9,41.7,30.05,NNW,338,0.7,0.7,85,0.00,,,0.00,WUHU216HW,2013-02-05 14:31:00,
2013-02-05 06:36:00,45.9,41.7,30.05,NNW,338,0.2,0.7,85,0.00,,,0.00,WUHU216HW,2013-02-05 14:36:00,
2013-02-05 07:00:00,46.1,41.9,30.05,WSW,248,0.4,0.4,85,0.00,,,0.00,WUHU216HW,2013-02-05 15:00:00,
2013-02-05 07:05:00,46.1,41.9,30.05,North,0,1.1,1.1,85,0.00,,,0.00,WUHU216HW,2013-02-05 15:05:00,
2013-02-05 07:11:00,46.1,41.9,30.05,North,0,1.1,1.1,85,0.00,,,0.00,WUHU216HW,2013-02-05 15:11:00,
2013-02-05 07:30:00,46.1,41.6,30.06,NNW,338,0.0,0.9,84,0.00,,,0.00,WUHU216HW,2013-02-05 15:30:00,
2013-02-05 07:31:00,46.1,41.6,30.06,NNW,338,0.9,0.9,84,0.00,,,0.00,WUHU216HW,2013-02-05 15:31:00,
2013-02-05 07:36:00,46.1,41.6,30.06,NNW,338,0.0,0.9,84,0.00,,,0.00,WUHU216HW,2013-02-05 15:36:00,
2013-02-05 08:00:00,46.4,41.6,30.07,NW,315,1.6,1.6,83,0.00,,,0.00,WUHU216HW,2013-02-05 16:00:00,
2013-02-05 08:05:00,46.4,41.6,30.07,SSW,203,2.7,2.7,83,0.00,,,0.00,WUHU216HW,2013-02-05 16:05:00,
2013-02-05 08:30:00,46.8,42.0,30.09,SW,225,2.0,2.0,83,0.00,,,0.00,WUHU216HW,2013-02-05 16:30:00,
2013-02-05 08:31:00,46.8,42.0,30.09,SW,225,2.0,2.0,83,0.00,,,0.00,WUHU216HW,2013-02-05 16:31:00,
2013-02-05 08:36:00,46.8,42.0,30.09,SW,225,2.0,2.0,83,0.00,,,0.00,WUHU216HW,2013-02-05 16:36:00,
2013-02-05 09:00:00,47.5,42.3,30.08,South,180,2.5,2.5,82,0.00,,,0.00,WUHU216HW,2013-02-05 17:00:00,
2013-02-05 09:05:00,47.5,42.3,30.09,NNW,338,1.6,2.5,82,0.00,,,0.00,WUHU216HW,2013-02-05 17:05:00,
2013-02-05 09:30:00,48.6,43.3,30.08,SSE,158,1.3,1.8,82,0.00,,,0.00,WUHU216HW,2013-02-05 17:30:00,
2013-02-05 09:31:00,48.6,43.3,30.08,SE,135,1.8,1.8,82,0.00,,,0.00,WUHU216HW,2013-02-05 17:31:00,
2013-02-05 09:36:00,48.6,43.3,30.08,SSE,158,1.3,1.8,82,0.00,,,0.00,WUHU216HW,2013-02-05 17:36:00,
2013-02-05 10:00:00,49.9,43.6,30.08,NNW,338,1.8,1.8,79,0.00,,,0.00,WUHU216HW,2013-02-05 18:00:00,
2013-02-05 10:05:00,49.9,43.9,30.08,WSW,248,1.6,1.8,80,0.00,,,0.00,WUHU216HW,2013-02-05 18:05:00,
2013-02-05 10:30:00,51.5,44.6,30.09,South,180,0.9,0.9,77,0.00,,,0.00,WUHU216HW,2013-02-05 18:30:00,
2013-02-05 10:31:00,51.5,44.6,30.09,South,180,0.9,0.9,77,0.00,,,0.00,WUHU216HW,2013-02-05 18:31:00,
2013-02-05 10:36:00,51.5,44.6,30.09,South,180,0.9,0.9,77,0.00,,,0.00,WUHU216HW,2013-02-05 18:36:00,
2013-02-05 10:41:00,51.5,44.6,30.09,South,180,0.9,0.9,77,0.00,,,0.00,WUHU216HW,2013-02-05 18:41:00,
2013-02-05 11:00:00,51.8,44.2,30.09,NW,315,1.8,1.8,75,0.00,,,0.00,WUHU216HW,2013-02-05 19:00:00,
2013-02-05 11:05:00,51.8,44.2,30.09,NW,315,1.1,1.8,75,0.00,,,0.00,WUHU216HW,2013-02-05 19:05:00,
2013-02-05 11:11:00,51.8,44.2,30.09,NW,315,1.1,1.1,75,0.00,,,0.00,WUHU216HW,2013-02-05 19:11:00,
2013-02-05 11:30:00,52.7,44.7,30.08,WNW,293,2.5,2.5,74,0.00,,,0.00,WUHU216HW,2013-02-05 19:30:00,
2013-02-05 11:31:00,52.7,44.7,30.08,WNW,293,1.8,1.8,74,0.00,,,0.00,WUHU216HW,2013-02-05 19:31:00,
2013-02-05 11:36:00,52.7,44.7,30.08,WNW,293,2.5,2.5,74,0.00,,,0.00,WUHU216HW,2013-02-05 19:36:00,
2013-02-05 12:00:00,53.3,44.5,30.07,South,180,0.7,0.7,72,0.00,,,0.00,WUHU216HW,2013-02-05 20:00:00,
2013-02-05 12:05:00,53.3,44.5,30.07,SSE,158,1.3,1.3,72,0.00,,,0.00,WUHU216HW,2013-02-05 20:05:00,
2013-02-05 12:30:00,53.5,45.0,30.07,NNW,338,1.8,2.5,73,0.00,,,0.00,WUHU216HW,2013-02-05 20:30:00,
2013-02-05 12:31:00,53.5,45.0,30.07,NW,315,2.5,2.5,73,0.00,,,0.00,WUHU216HW,2013-02-05 20:31:00,
2013-02-05 12:36:00,53.5,45.0,30.07,NNW,338,1.8,2.5,73,0.00,,,0.00,WUHU216HW,2013-02-05 20:36:00,
2013-02-05 13:00:00,53.8,45.4,30.06,SW,225,1.8,1.8,73,0.00,,,0.00,WUHU216HW,2013-02-05 21:00:00,
2013-02-05 13:05:00,53.8,45.4,30.06,WSW,248,2.2,2.2,73,0.00,,,0.00,WUHU216HW,2013-02-05 21:05:00,
2013-02-05 13:30:00,53.8,45.4,30.05,South,180,1.8,1.8,73,0.00,,,0.00,WUHU216HW,2013-02-05 21:30:00,
2013-02-05 13:31:00,53.8,45.4,30.05,South,180,1.8,1.8,73,0.00,,,0.00,WUHU216HW,2013-02-05 21:31:00,
2013-02-05 13:36:00,53.8,45.4,30.05,South,180,1.8,1.8,73,0.00,,,0.00,WUHU216HW,2013-02-05 21:36:00,
2013-02-05 14:00:00,54.4,46.3,30.04,SW,225,1.1,1.1,74,0.00,,,0.00,WUHU216HW,2013-02-05 22:00:00,
2013-02-05 14:05:00,54.4,45.9,30.04,SW,225,1.3,1.8,73,0.00,,,0.00,WUHU216HW,2013-02-05 22:05:00,
2013-02-05 14:30:00,55.6,46.7,30.04,NW,315,1.8,1.8,72,0.00,,,0.00,WUHU216HW,2013-02-05 22:30:00,
2013-02-05 14:31:00,55.4,46.6,30.04,NW,315,1.8,1.8,72,0.00,,,0.00,WUHU216HW,2013-02-05 22:31:00,
2013-02-05 14:36:00,55.6,46.7,30.04,NW,315,1.8,1.8,72,0.00,,,0.00,WUHU216HW,2013-02-05 22:36:00,
2013-02-05 15:00:00,55.1,46.6,30.04,North,0,2.9,2.9,73,0.00,,,0.00,WUHU216HW,2013-02-05 23:00:00,
2013-02-05 15:05:00,55.1,46.6,30.04,SE,135,2.9,2.9,73,0.00,,,0.00,WUHU216HW,2013-02-05 23:05:00,
2013-02-05 15:30:00,54.5,46.5,30.05,West,270,4.0,4.0,74,0.00,,,0.00,WUHU216HW,2013-02-05 23:30:00,
2013-02-05 15:31:00,54.4,46.3,30.05,SW,225,3.4,3.4,74,0.00,,,0.00,WUHU216HW,2013-02-05 23:31:00,
2013-02-05 15:36:00,54.5,46.5,30.05,West,270,4.0,4.0,74,0.00,,,0.00,WUHU216HW,2013-02-05 23:36:00,
2013-02-05 16:00:00,54.5,46.8,30.06,NW,315,1.1,2.7,75,0.00,,,0.00,WUHU216HW,2013-02-06 00:00:00,
2013-02-05 16:01:00,54.5,46.8,30.06,NNW,338,2.7,2.7,75,0.00,,,0.00,WUHU216HW,2013-02-06 00:01:00,
2013-02-05 16:05:00,54.5,46.8,30.06,NW,315,1.1,2.7,75,0.00,,,0.00,WUHU216HW,2013-02-06 00:05:00,
2013-02-05 16:30:00,54.9,47.4,30.06,SSE,158,2.2,2.2,76,0.00,,,0.00,WUHU216HW,2013-02-06 00:30:00,
2013-02-05 16:31:00,54.9,47.4,30.06,SSE,158,2.2,2.2,76,0.00,,,0.00,WUHU216HW,2013-02-06 00:31:00,
2013-02-05 16:36:00,54.9,47.4,30.06,SSE,158,2.2,2.2,76,0.00,,,0.00,WUHU216HW,2013-02-06 00:36:00,
2013-02-05 17:00:00,54.2,46.5,30.06,WSW,248,0.9,0.9,75,0.00,,,0.00,WUHU216HW,2013-02-06 01:00:00,
2013-02-05 17:01:00,54.2,46.5,30.06,North,0,0.9,0.9,75,0.00,,,0.00,WUHU216HW,2013-02-06 01:01:00,
2013-02-05 17:06:00,54.2,46.5,30.06,WSW,248,0.9,0.9,75,0.00,,,0.00,WUHU216HW,2013-02-06 01:06:00,
2013-02-05 17:30:00,52.6,45.9,30.06,South,180,1.1,1.1,78,0.00,,,0.00,WUHU216HW,2013-02-06 01:30:00,
2013-02-05 17:31:00,52.7,46.1,30.06,South,180,1.1,1.1,78,0.00,,,0.00,WUHU216HW,2013-02-06 01:31:00,
2013-02-05 17:36:00,52.6,45.9,30.06,South,180,1.1,1.1,78,0.00,,,0.00,WUHU216HW,2013-02-06 01:36:00,
2013-02-05 18:00:00,51.7,45.4,30.06,SSE,158,1.3,1.3,79,0.00,,,0.00,WUHU216HW,2013-02-06 02:00:00,
2013-02-05 18:01:00,51.7,45.4,30.06,ENE,68,0.7,0.7,79,0.00,,,0.00,WUHU216HW,2013-02-06 02:01:00,
2013-02-05 18:06:00,51.7,45.4,30.06,SSE,158,1.3,1.3,79,0.00,,,0.00,WUHU216HW,2013-02-06 02:06:00,
2013-02-05 18:30:00,50.9,45.0,30.07,ESE,113,0.4,0.4,80,0.00,,,0.00,WUHU216HW,2013-02-06 02:30:00,
2013-02-05 18:31:00,50.9,45.0,30.07,North,0,0.0,0.0,80,0.00,,,0.00,WUHU216HW,2013-02-06 02:31:00,
2013-02-05 18:36:00,50.9,45.0,30.07,ESE,113,0.4,0.4,80,0.00,,,0.00,WUHU216HW,2013-02-06 02:36:00,
2013-02-05 19:00:00,50.2,44.9,30.07,SSE,158,1.6,1.6,82,0.00,,,0.00,WUHU216HW,2013-02-06 03:00:00,
2013-02-05 19:01:00,50.2,44.9,30.07,WSW,248,0.4,0.4,82,0.00,,,0.00,WUHU216HW,2013-02-06 03:01:00,
2013-02-05 19:06:00,50.2,44.9,30.07,SSE,158,1.6,1.6,82,0.00,,,0.00,WUHU216HW,2013-02-06 03:06:00,
2013-02-05 19:30:00,49.3,44.0,30.08,SE,135,0.0,0.0,82,0.00,,,0.00,WUHU216HW,2013-02-06 03:30:00,
2013-02-05 19:31:00,49.3,44.0,30.08,SE,135,0.0,0.0,82,0.00,,,0.00,WUHU216HW,2013-02-06 03:31:00,
2013-02-05 19:36:00,49.3,44.0,30.08,SE,135,0.0,0.0,82,0.00,,,0.00,WUHU216HW,2013-02-06 03:36:00,
2013-02-05 20:00:00,48.4,43.1,30.08,ENE,68,0.0,0.0,82,0.00,,,0.00,WUHU216HW,2013-02-06 04:00:00,
2013-02-05 20:01:00,48.4,43.1,30.08,ENE,68,0.0,0.0,82,0.00,,,0.00,WUHU216HW,2013-02-06 04:01:00,
2013-02-05 20:06:00,48.4,43.1,30.08,ENE,68,0.0,0.0,82,0.00,,,0.00,WUHU216HW,2013-02-06 04:06:00,
2013-02-05 20:30:00,47.5,42.6,30.09,WSW,248,0.0,0.0,83,0.00,,,0.00,WUHU216HW,2013-02-06 04:30:00,
2013-02-05 20:31:00,47.5,42.6,30.09,WSW,248,0.0,0.0,83,0.00,,,0.00,WUHU216HW,2013-02-06 04:31:00,
2013-02-05 20:36:00,47.5,42.6,30.09,WSW,248,0.0,0.0,83,0.00,,,0.00,WUHU216HW,2013-02-06 04:36:00,
2013-02-05 21:00:00,47.2,42.6,30.10,WSW,248,0.0,0.0,84,0.00,,,0.00,WUHU216HW,2013-02-06 05:00:00,
2013-02-05 21:01:00,47.2,42.6,30.10,WSW,248,0.0,0.0,84,0.00,,,0.00,WUHU216HW,2013-02-06 05:01:00,
2013-02-05 21:06:00,47.2,42.6,30.10,WSW,248,0.0,0.0,84,0.00,,,0.00,WUHU216HW,2013-02-06 05:06:00,
2013-02-05 21:30:00,46.8,42.6,30.10,WNW,293,0.4,0.4,85,0.00,,,0.00,WUHU216HW,2013-02-06 05:30:00,
2013-02-05 21:31:00,46.8,42.6,30.10,WNW,293,0.4,0.4,85,0.00,,,0.00,WUHU216HW,2013-02-06 05:31:00,
2013-02-05 21:36:00,46.8,42.6,30.10,WNW,293,0.4,0.4,85,0.00,,,0.00,WUHU216HW,2013-02-06 05:36:00,
2013-02-05 22:00:00,46.3,42.0,30.11,SE,135,0.0,0.0,85,0.00,,,0.00,WUHU216HW,2013-02-06 06:00:00,
2013-02-05 22:01:00,46.3,42.0,30.11,SE,135,0.0,0.0,85,0.00,,,0.00,WUHU216HW,2013-02-06 06:01:00,
2013-02-05 22:06:00,46.3,42.0,30.11,SE,135,0.0,0.0,85,0.00,,,0.00,WUHU216HW,2013-02-06 06:06:00,
2013-02-05 22:30:00,44.8,40.6,30.11,SW,225,0.0,0.0,85,0.00,,,0.00,WUHU216HW,2013-02-06 06:30:00,
2013-02-05 22:31:00,44.8,40.6,30.11,SW,225,0.0,0.0,85,0.00,,,0.00,WUHU216HW,2013-02-06 06:31:00,
2013-02-05 22:36:00,44.8,40.6,30.11,SW,225,0.0,0.0,85,0.00,,,0.00,WUHU216HW,2013-02-06 06:36:00,
2013-02-05 23:00:00,43.9,40.0,30.11,WNW,293,0.0,0.0,86,0.00,,,0.00,WUHU216HW,2013-02-06 07:00:00,
2013-02-05 23:01:00,44.1,40.1,30.11,WNW,293,0.0,0.0,86,0.00,,,0.00,WUHU216HW,2013-02-06 07:01:00,
2013-02-05 23:06:00,43.9,40.0,30.11,WNW,293,0.0,0.0,86,0.00,,,0.00,WUHU216HW,2013-02-06 07:06:00,
2013-02-05 23:30:00,44.8,41.5,30.10,WNW,293,1.1,1.1,88,0.00,,,0.00,WUHU216HW,2013-02-06 07:30:00,
2013-02-05 23:31:00,44.8,41.5,30.10,WNW,293,1.1,1.1,88,0.00,,,0.00,WUHU216HW,2013-02-06 07:31:00,
2013-02-05 23:36:00,44.8,41.5,30.10,WNW,293,1.1,1.1,88,0.00,,,0.00,WUHU216HW,2013-02-06 07:36:00,